Location: Eurasberg
(48.3353°N, 11.0839°E)
Time: 18:10:40
(UTC+00:00)

Timation 2 Rocket - Visible Passes

Search period start: 11 April 2026 00:00
Search period end: 21 April 2026 00:00
Orbit: 906 x 1072 km, 70.0° (Epoch: 11 April)

Date Brightness Start Highest point End Pass type
(mag) Time Alt. Az. Time Alt. Az. Time Alt. Az.
11 Apr 5.4 18:41:01 10° NNW 18:45:55 24° NE 18:50:57 10° E visible
11 Apr 3.9 20:27:56 10° NNW 20:34:14 87° ENE 20:36:19 46° SSE visible
11 Apr 5.8 22:16:41 10° WNW 22:20:54 19° W 22:21:16 19° WSW visible
12 Apr 4.8 19:10:29 10° NNW 19:16:14 37° NE 19:20:44 17° ESE visible
12 Apr 4.5 20:57:50 10° NW 21:03:54 52° WSW 21:05:42 40° SSW visible
13 Apr 4.1 19:40:03 10° NNW 19:46:18 64° ENE 19:50:09 25° SE visible
13 Apr 5.4 21:28:06 10° NW 21:33:19 28° WSW 21:35:07 24° SW visible
14 Apr 4.1 20:09:49 10° NNW 20:16:05 74° WSW 20:19:36 29° SSE visible
14 Apr 6.2 21:59:28 10° WNW 22:02:31 14° W 22:04:34 12° WSW visible
15 Apr 4.5 18:52:14 10° NNW 18:58:17 47° NE 19:04:09 12° SE visible
15 Apr 5.0 20:39:50 10° NW 20:45:40 40° WSW 20:49:07 23° SSW visible
16 Apr 4.0 19:21:53 10° NNW 19:28:14 81° ENE 19:33:42 16° SSE visible
16 Apr 5.9 21:10:26 10° NW 21:14:59 21° W 21:18:40 13° SW visible
17 Apr 4.5 19:51:45 10° NW 19:57:55 57° WSW 20:03:19 15° S visible
18 Apr 4.2 18:34:02 10° NNW 18:40:16 60° NE 18:46:45 10° SE visible
18 Apr 5.5 20:21:58 10° NW 20:27:23 30° WSW 20:32:59 10° SSW visible
19 Apr 4.2 19:03:45 10° NNW 19:10:07 80° WSW 19:16:43 10° SSE visible
19 Apr 6.3 20:53:03 10° WNW 20:56:36 16° W 21:00:14 10° SW visible
20 Apr 5.1 19:33:44 10° NW 19:39:42 43° WSW 19:45:53 10° S visible
